Regional Weather Roundup
Issued by NWS

Home | Current Version | Previous Version | Graphics & Text | Print | Product List | Glossary Off
Versions: 1 2 3 4 5 6 7 8 9 10 11 12 13 14 15 16 17 18 19 20 21 22 23 24 25 26 27 28 29 30 31 32 33 34 35 36 37 38 39 40 41 42 43 44 45 46 47 48 49 50

656
ASUS43 KMKX 250611
RWRWI

WISCONSIN REGIONAL WEATHER ROUNDUP
NATIONAL WEATHER SERVICE MILWAUKEE/SULLIVAN WI
100 AM CDT TUE JUL 25 2017

NOTE: "FAIR" INDICATES FEW OR NO CLOUDS BELOW 12,000 FEET WITH NO
SIGNIFICANT WEATHER AND/OR OBSTRUCTIONS TO VISIBILITY.

WIZ001-002-006>008-014>016-023>028-250700-
NORTHWEST WISCONSIN

CITY           SKY/WX    TMP DP  RH WIND       PRES   REMARKS
SUPERIOR ARPT  NOT AVBL
ASHLAND        PTCLDY    54  53  97 CALM      30.07S FOG
6HR MIN TEMP:  52; 6HR MAX TEMP:  71;

HAYWARD        PTCLDY    56  54  93 CALM      30.08S
6HR MIN TEMP:  56; 6HR MAX TEMP:  74;

SIREN          MOCLDY    64  58  82 S8        30.05F
6HR MIN TEMP:  63; 6HR MAX TEMP:  75;

CUMBERLAND     MOCLDY    57  55  94 S5        30.08F
RICE LAKE      MOCLDY    61  57  89 SE5       30.10R
6HR MIN TEMP:  60; 6HR MAX TEMP:  73;

CHETEK         MOCLDY    59  58  96 SE5       30.10R
6HR MIN TEMP:  59; 6HR MAX TEMP:  72;

LADYSMITH      MOCLDY    61  57  88 SE5       30.12S
6HR MIN TEMP:  61; 6HR MAX TEMP:  75;

EAU CLAIRE     PTCLDY    63  59  87 SE7       30.08S
6HR MIN TEMP:  60; 6HR MAX TEMP:  74;

MENOMONIE      PTCLDY    61  59  94 CALM      30.09R
6HR MIN TEMP:  61; 6HR MAX TEMP:  73;

NEW RICHMOND   CLOUDY    63  58  81 SE7       30.06F
6HR MIN TEMP:  62; 6HR MAX TEMP:  73;

OSCEOLA        CLOUDY    65  59  80 S7        30.08F
6HR MIN TEMP:  64; 6HR MAX TEMP:  75;

$$

WIZ003>005-009-010-017-018-250700-
NORTH CENTRAL WISCONSIN

CITY           SKY/WX    TMP DP  RH WIND       PRES   REMARKS
MANITOWISH WTR CLOUDY    58  58 100 S5        30.12S
6HR MIN TEMP:  54; 6HR MAX TEMP:  74;

ARBOR VITAE    CLOUDY    62  57  83 S5        30.13R
6HR MIN TEMP:  59; 6HR MAX TEMP:  77;

WOODRUFF       CLOUDY    62  57  83 S5        30.13R
6HR MIN TEMP:  59; 6HR MAX TEMP:  77;

RHINELANDER    CLOUDY    60  54  80 SW3       30.15R
6HR MIN TEMP:  59; 6HR MAX TEMP:  75;

EAGLE RIVER    PTCLDY    56  53  89 CALM      30.13S
6HR MIN TEMP:  55; 6HR MAX TEMP:  73;

LAND O LAKES   CLOUDY    52  52 100 CALM      30.15S
6HR MIN TEMP:  52; 6HR MAX TEMP:  75;

PHILLIPS       CLOUDY    60  57  89 S5        30.12R
6HR MIN TEMP:  58; 6HR MAX TEMP:  74;

TOMAHAWK         N/A     55  52  88 CALM      30.15R
6HR MIN TEMP:  55; 6HR MAX TEMP:  73;

MEDFORD        PTCLDY    58  55  88 SE3       30.14R
6HR MIN TEMP:  58; 6HR MAX TEMP:  72;

MERRILL        PTCLDY    61  54  77 CALM      30.14R
6HR MIN TEMP:  61; 6HR MAX TEMP:  75;

$$

WIZ029-030-035-036-043>047-250700-
CENTRAL WISCONSIN

CITY           SKY/WX    TMP DP  RH WIND       PRES   REMARKS
WAUSAU         PTCLDY    59  52  77 E3        30.13R
6HR MIN TEMP:  59; 6HR MAX TEMP:  74;

MOSINEE        PTCLDY    55  52  88 CALM      30.15R
MARSHFIELD     CLEAR     59  53  80 CALM      30.13R
6HR MIN TEMP:  59; 6HR MAX TEMP:  73;

STEVENS POINT  PTCLDY    56  52  88 CALM      30.15R
6HR MIN TEMP:  56; 6HR MAX TEMP:  72;

WAUPACA        MOCLDY    58  56  94 CALM      30.14S
6HR MIN TEMP:  58; 6HR MAX TEMP:  76;

WAUTOMA        PTCLDY    56  54  93 CALM      30.15
6HR MIN TEMP:  56; 6HR MAX TEMP:  74;

WISC RAPIDS    PTCLDY    61  55  81 S5        30.15R
6HR MIN TEMP:  60; 6HR MAX TEMP:  75;

CAMP DOUGLAS   FOG       54  54 100 CALM      30.13R VSB 1
$$

WIZ011>013-019>022-031-037>040-048>050-250700-
NORTHEAST WISCONSIN

CITY           SKY/WX    TMP DP  RH WIND       PRES   REMARKS
ANTIGO         CLOUDY    55  51  85 S5        30.15S
6HR MIN TEMP:  54; 6HR MAX TEMP:  71;

SHAWANO        CLOUDY    61  54  76 CALM      30.14R
6HR MIN TEMP:  60; 6HR MAX TEMP:  74;

OCONTO         PTCLDY    53  52  97 CALM      30.13S
6HR MIN TEMP:  53; 6HR MAX TEMP:  72;

STURGEON BAY     N/A     56  52  86 CALM      30.15S
6HR MIN TEMP:  56; 6HR MAX TEMP:  68;

GREEN BAY      CLEAR     56  55  97 CALM      30.14R
6HR MIN TEMP:  56; 6HR MAX TEMP:  72;

MANITOWOC      PTCLDY    53  49  86 CALM      30.15R
6HR MIN TEMP:  53; 6HR MAX TEMP:  70;

APPLETON       PTCLDY    61  43  51 CALM      30.12F
CLINTONVILLE   CLOUDY   N/A N/A N/A CALM      30.14R
OSHKOSH        PTCLDY    59  52  77 CALM      30.12F
6HR MIN TEMP:  57; 6HR MAX TEMP:  73;

$$

WIZ032>034-041-042-053>061-250700-
SOUTHWEST WISCONSIN

CITY           SKY/WX    TMP DP  RH WIND       PRES   REMARKS
LA CROSSE      PTCLDY    65  61  87 E7        30.09S
6HR MIN TEMP:  65; 6HR MAX TEMP:  77;

SPARTA         CLOUDY    53  53 100 CALM      30.12S
6HR MIN TEMP:  53; 6HR MAX TEMP:  73;

VIROQUA        PTCLDY    61  60  94 CALM      30.13S
6HR MIN TEMP:  61; 6HR MAX TEMP:  72;

BOSCOBEL       FOG       59  58  96 CALM      30.13R VSB 1/2
6HR MIN TEMP:  58; 6HR MAX TEMP:  75;

PRAIRIE DU CHI CLEAR     61  58  92 CALM      30.11R
6HR MIN TEMP:  61; 6HR MAX TEMP:  73;

PLATTEVILLE    CLEAR     62  61  98 E7        30.14R
6HR MIN TEMP:  62; 6HR MAX TEMP:  73;

$$

WIZ056-057-062-063-064-067-068-250700-
SOUTH CENTRAL WISCONSIN

CITY           SKY/WX    TMP DP  RH WIND       PRES   REMARKS
REEDSBURG      CLEAR     59  59 100 CALM      30.13R
6HR MIN TEMP:  59; 6HR MAX TEMP:  73;

BARABOO/DELLS  CLEAR     58  54  86 CALM      30.14R
6HR MIN TEMP:  57; 6HR MAX TEMP:  74;

LONE ROCK      CLEAR     60  59  96 CALM      30.13R
6HR MIN TEMP:  60; 6HR MAX TEMP:  74;

MINERAL POINT  CLEAR     63  61  94 SE5       30.14R
MADISON        CLOUDY    61  53  75 CALM      30.13R
6HR MIN TEMP:  60; 6HR MAX TEMP:  74;

MIDDLETON      CLOUDY    63  55  75 SE5       30.14R
6HR MIN TEMP:  58; 6HR MAX TEMP:  76;

WATERTOWN      CLEAR     55  55 100 E3        30.13S
6HR MIN TEMP:  55; 6HR MAX TEMP:  72; 6HR PCP:  0.01;

MONROE         CLEAR     61  57  88 SE5       30.14R
JANESVILLE     CLEAR     59  59 100 CALM      30.13S
$$

WIZ051-052-058>065-066-070>072-250700-
SOUTHEAST WISCONSIN

CITY           SKY/WX    TMP DP  RH WIND       PRES   REMARKS
MILWAUKEE      CLEAR     61  57  87 CALM      30.14R
6HR MIN TEMP:  61; 6HR MAX TEMP:  69;

WAUKESHA       CLEAR     54  52  94 CALM      30.15S
MILWAUKEE/TIMM CLEAR     57  52  82 CALM      30.14F
RACINE         CLEAR     61  58  90 CALM      30.15S
6HR MIN TEMP:  58; 6HR MAX TEMP:  68;

KENOSHA        CLEAR     56  54  93 CALM      30.14S
6HR MIN TEMP:  56; 6HR MAX TEMP:  70;

FOND DU LAC    PTCLDY    55  50  83 S5        30.13F
6HR MIN TEMP:  55; 6HR MAX TEMP:  73;

SHEBOYGAN      PTCLDY    51  51 100 CALM      30.14S
6HR MIN TEMP:  51; 6HR MAX TEMP:  69;

WEST BEND      CLEAR     52  52 100 CALM      30.15S FOG
JUNEAU         CLEAR     56  52  87 CALM      30.15S
6HR MIN TEMP:  54; 6HR MAX TEMP:  72;

$$

LSZ147-162-250700-
LAKE SUPERIOR

STATION/POSITION TIME  TEMP    WIND        PRES    WAVE
                       AIR SEA DIR/SP/G            HT/PER
                 (UTC) (F)     (DEG/KT/KT) (MB)    (FT/S)
W MID LAKE BUOY  0450   57 50  110/  8/  8 1017.6F   0
DEVILS ISLAND    0600   64     150/  8/  9 1017.7S
SAXON HARBOR     0540   59     200/  6/  7 1017.6S
$$

LMZ867-665-643>646-250700-
LAKE MICHIGAN

STATION/POSITION TIME  TEMP    WIND        PRES    WAVE
                       AIR SEA DIR/SP/G            HT/PER
                 (UTC) (F)     (DEG/KT/KT) (MB)    (FT/S)
CHAMBERS ISLAND  0540   56     160/  2/  3 1020.0R
S GREEN BAY BUOY 0600   69 72  120/  6/  8 1019.9
N MID LAKE BUOY  0550   65 66   10/  2/  2 1021.2R   0
NORTHPORT PIER   0540



USA.gov is the U.S. government's official web portal to all federal, state and local government web resources and services.